DW8871 Weather Reports


Display with metric or nautical units.
time (UTC)temp
F
wind
direction
speed
MPH
gust
MPH
rain 1hr
in
rain 24hr
in
rain mn
in
humidity
%
barometer
mb
20260508073032 56 237 4.0 7.0 0.00 0.00 0.00 70 1009.6
20260508071529 56 244 4.0 9.0 0.00 0.00 0.00 69 1009.8
20260508070043 57 206 3.0 8.0 0.00 0.00 0.00 69 1009.9
20260508064537 57 266 4.0 9.0 0.00 0.00 0.00 68 1010.1
20260508063032 57 232 4.0 10.0 0.00 0.00 0.00 67 1010.4
20260508061532 57 233 4.0 9.0 0.00 0.00 0.00 67 1010.6
20260508060034 57 221 4.0 9.0 0.00 0.00 0.00 67 1010.7
20260508054532 58 202 4.0 10.0 0.00 0.00 0.00 66 1010.7
20260508053030 58 233 3.0 8.0 0.00 0.00 0.00 66 1010.6
20260508051530 59 222 3.0 9.0 0.00 0.00 0.00 64 1010.6
20260508050032 60 236 4.0 10.0 0.00 0.00 0.00 63 1010.7
20260508044532 60 218 4.0 10.0 0.00 0.00 0.00 62 1010.8
20260508043050 60 248 5.0 10.0 0.00 0.00 0.00 61 1010.9
20260508041534 60 231 5.0 10.0 0.00 0.00 0.00 60 1010.9
20260508040032 60 225 4.0 9.0 0.00 0.00 0.00 61 1010.8
20260508034530 61 311 4.0 11.0 0.00 0.00 0.00 60 1010.8
20260508033033 61 238 3.0 9.0 0.00 0.00 0.00 60 1010.7
20260508031531 61 221 2.0 12.0 0.00 0.00 0.00 60 1010.7
20260508030042 61 235 3.0 8.0 0.00 0.00 0.00 60 1010.6
20260508024534 62 236 4.0 11.0 0.00 0.00 0.00 59 1010.4
20260508023032 62 217 3.0 8.0 0.00 0.00 0.00 59 1010.2
20260508021533 62 225 2.0 8.0 0.00 0.00 0.00 58 1010.0
20260508020029 62 233 2.0 6.0 0.00 0.00 0.00 58 1009.9
20260508014530 63 0 1.0 5.0 0.00 0.00 0.00 57 1009.8
20260508013031 63 230 2.0 5.0 0.00 0.00 0.00 57 1009.7
20260508011530 64 0 1.0 7.0 0.00 0.00 0.00 55 1009.7
20260508010030 65 239 1.0 7.0 0.00 0.00 0.00 53 1009.7
20260508004529 66 171 2.0 6.0 0.00 0.00 0.00 50 1009.6
20260508003032 67 241 2.0 8.0 0.00 0.00 0.00 49 1009.6
20260508001531 68 223 2.0 9.0 0.00 0.00 0.00 48 1009.7
20260508000029 68 258 4.0 11.0 0.00 0.00 0.00 47 1009.9
20260507234539 68 253 4.0 10.0 0.00 0.00 0.00 46 1009.9
20260507233030 69 223 4.0 12.0 0.00 0.00 0.00 45 1010.1
20260507231531 70 292 4.0 12.0 0.00 0.00 0.00 44 1010.2
20260507230032 69 272 4.0 13.0 0.00 0.00 0.00 46 1010.4
20260507224531 69 319 5.0 14.0 0.00 0.00 0.00 45 1010.6
20260507223030 70 275 4.0 14.0 0.00 0.00 0.00 46 1010.7
20260507221530 70 287 4.0 14.0 0.00 0.00 0.00 46 1010.7
20260507220030 69 273 4.0 17.0 0.00 0.00 0.00 46 1010.8
20260507214530 69 303 9.0 17.0 0.00 0.00 0.00 45 1010.8
20260507213032 68 227 5.0 14.0 0.00 0.00 0.00 48 1011.1
20260507211528 68 200 5.0 18.0 0.00 0.00 0.00 47 1011.2
20260507210030 68 223 7.0 21.0 0.00 0.00 0.00 48 1011.4
20260507204530 68 259 8.0 19.0 0.00 0.00 0.00 49 1011.7
20260507203030 67 252 7.0 19.0 0.00 0.00 0.00 51 1011.9
20260507201536 67 238 8.0 20.0 0.00 0.00 0.00 49 1012.3
20260507200035 67 219 7.0 16.0 0.00 0.00 0.00 51 1012.5
20260507194532 66 292 7.0 16.0 0.00 0.00 0.00 54 1012.9
20260507193031 65 263 7.0 19.0 0.00 0.00 0.00 52 1013.0
20260507191534 65 169 9.0 21.0 0.00 0.00 0.00 52 1013.1
20260507190031 65 235 5.0 15.0 0.00 0.00 0.00 56 1013.1
20260507184529 65 248 8.0 17.0 0.00 0.00 0.00 54 1013.5
20260507183041 64 229 8.0 16.0 0.00 0.00 0.00 55 1013.5
20260507181530 64 230 7.0 16.0 0.00 0.00 0.00 53 1013.7
20260507180033 63 229 7.0 16.0 0.00 0.00 0.00 56 1013.9
20260507174534 63 286 10.0 19.0 0.00 0.00 0.00 54 1014.2
20260507173034 63 257 9.0 15.0 0.00 0.00 0.00 56 1014.4
20260507171532 63 219 7.0 18.0 0.00 0.00 0.00 55 1014.6
20260507170032 62 254 10.0 18.0 0.00 0.00 0.00 55 1014.9
20260507164534 61 236 5.0 14.0 0.00 0.00 0.00 58 1015.1
20260507163031 61 236 8.0 19.0 0.00 0.00 0.00 57 1015.3
20260507161529 61 285 5.0 15.0 0.00 0.00 0.00 59 1015.3
20260507160035 61 248 5.0 12.0 0.00 0.00 0.00 59 1015.4
20260507154533 60 305 5.0 15.0 0.00 0.00 0.00 60 1015.7
20260507153031 59 245 5.0 11.0 0.00 0.00 0.00 64 1015.8
20260507151530 58 221 6.0 15.0 0.00 0.00 0.00 63 1015.8
20260507150028 57 302 5.0 13.0 0.00 0.00 0.00 63 1016.1
20260507144532 56 264 4.0 12.0 0.00 0.00 0.00 66 1016.3
20260507143053 55 230 4.0 9.0 0.00 0.00 0.00 69 1016.3
20260507141539 54 252 3.0 12.0 0.00 0.00 0.00 71 1016.2
20260507140028 53 281 2.0 10.0 0.00 0.00 0.00 75 1016.4
20260507134530 52 310 4.0 11.0 0.00 0.00 0.00 75 1016.3
20260507133028 51 272 3.0 11.0 0.00 0.00 0.00 76 1016.4
20260507131537 51 324 2.0 9.0 0.00 0.00 0.00 78 1016.4
20260507130039 49 249 3.0 8.0 0.00 0.00 0.00 78 1016.5
20260507124531 48 279 3.0 8.0 0.00 0.00 0.00 80 1016.5
20260507123031 47 242 3.0 7.0 0.00 0.00 0.00 80 1016.6
20260507121528 47 249 3.0 8.0 0.00 0.00 0.00 81 1016.6
20260507120028 46 237 2.0 4.0 0.00 0.00 0.00 82 1016.5
20260507114532 45 259 2.0 6.0 0.00 0.00 0.00 82 1016.4
20260507113031 45 262 2.0 5.0 0.00 0.00 0.00 81 1016.5
20260507111530 45 261 2.0 4.0 0.00 0.00 0.00 81 1016.5
20260507110029 45 242 1.0 4.0 0.00 0.00 0.00 81 1016.4
20260507104528 45 242 1.0 4.0 0.00 0.00 0.00 80 1016.3
20260507103032 45 244 1.0 4.0 0.00 0.00 0.00 80 1016.4
20260507101530 45 0 0.0 4.0 0.00 0.00 0.00 80 1016.5
20260507100036 44 254 1.0 5.0 0.00 0.00 0.00 81 1016.5
20260507094531 44 238 0.0 4.0 0.00 0.00 0.00 81 1016.5
20260507093028 43 0 0.0 3.0 0.00 0.00 0.00 81 1016.6
20260507091534 44 0 0.0 3.0 0.00 0.00 0.00 81 1016.7
20260507090032 44 0 0.0 2.0 0.00 0.00 0.00 80 1016.7
20260507084531 44 0 0.0 2.0 0.00 0.00 0.00 80 1016.9
20260507083030 44 241 1.0 3.0 0.00 0.00 0.00 81 1016.9
20260507081530 44 221 0.0 2.0 0.00 0.00 0.00 79 1017.0
20260507080031 45 0 0.0 2.0 0.00 0.00 0.00 78 1016.9
20260507074528 45 0 0.0 4.0 0.00 0.00 0.00 77 1016.9